[[{"header":{"parameterUnit":"m.s-1","parameterCategory":1,"la1":30.2991,"la2":30.254,"lo1":-89.0895,"lo2":-89.0444,"dy":0.0017,"dx":0.0017,"nx":28,"ny":28,"refTime":"2025-03-15T21:00:00:Z","depth":0,"parameterNumber":2,"parameterNumberName":"U-component_of_WINDS"},"data":[0,0,0,0,0,0,0,0,0,0,0,0,0,0,0,0,0,0,0,0,0,0,0,0,0,0,0,0,0,0,0,0,0,0,0,0,0,0,0,0,0,0,0,0,0,0,0,0,0,0,0,0,0,0,0,0,0,0,1.9146,1.9147,0,1.9232,1.9233,1.9234,1.9254,1.9253,1.9253,1.9252,1.9341,1.9344,1.9347,0,0,0,0,0,0,0,0,0,0,0,0,0,1.9002,1.9004,1.9146,1.9147,1.9148,1.9232,1.9233,1.9234,1.9254,1.9253,1.9252,1.9252,1.934,1.9344,1.9347,0,0,0,0,0,0,0,0,0,0,0,0,0,1.9074,1.9005,1.9146,1.9168,1.9171,1.9231,1.9233,1.9234,1.9254,1.9253,1.9252,1.9251,1.9339,1.9344,1.9348,1.9393,0,0,1.9361,1.9363,0,0,0,0,0,0,0,0,1.907,1.9079,1.9164,1.9167,1.917,1.9231,1.9215,1.9288,1.9254,1.9222,1.9252,1.9251,1.9306,1.9313,1.9331,1.9397,1.9401,1.9362,1.9364,1.9366,1.9368,0,0,0,0,0,0,0,1.9065,1.9075,1.918,1.9165,1.9169,1.9175,1.9184,1.9229,1.9268,1.9225,1.9227,1.9237,1.9307,1.9326,1.9333,1.9402,1.9362,1.9366,1.9368,1.937,1.9512,1.9513,0,0,0,0,0,0,1.9055,1.9071,1.9177,1.9183,1.9116,1.9178,1.9188,1.9212,1.9268,1.9275,1.9237,1.9237,1.9319,1.9328,1.9336,1.9394,1.9366,1.937,1.9373,1.9511,1.9512,1.9514,0,0,0,0,0,0,1.9052,1.9065,1.9174,1.9127,1.9142,1.9181,1.9208,1.9215,1.9234,1.9277,1.9284,1.925,1.9319,1.933,1.9379,1.9397,1.9372,1.9376,1.951,1.9511,1.9513,1.9508,0,0,0,0,0,0,1.9048,1.9063,1.908,1.9128,1.9144,1.9214,1.9209,1.9217,1.9241,1.9242,1.929,1.9297,1.9319,1.9372,1.9383,1.9403,1.938,1.9508,1.951,1.9512,1.9507,1.951,1.9512,0,0,0,0,0,1.9043,1.9075,1.9081,1.9093,1.9166,1.9215,1.9225,1.9249,1.9243,1.926,1.9288,1.9296,1.9393,1.9377,1.939,1.9411,1.9507,1.951,1.9512,1.9506,1.9509,1.9512,0,0,0,0,0,0,1.9029,1.9082,1.9088,1.9137,1.9171,1.9218,1.9241,1.9251,1.9288,1.9287,1.9316,1.9327,1.9374,1.9397,1.9378,1.9458,1.945,1.9455,1.9441,1.9445,1.9447,1.944,1.9384,0,0,0,0,0,1.9031,1.9066,1.9111,1.915,1.9167,1.9201,1.9223,1.9239,1.9276,1.9291,1.9322,1.9358,1.9397,1.9422,1.946,1.9511,1.9522,1.9532,1.9534,1.9536,1.954,1.957,1.9575,1.9522,1.9522,1.9522,0,0,1.9037,1.907,1.9091,1.9148,1.9176,1.9213,1.9213,1.9251,1.9279,1.9297,1.9345,1.937,1.9412,1.9462,1.9486,1.9483,1.9557,1.9539,1.954,1.9543,1.9573,1.9578,1.9583,1.9524,1.9523,1.9523,0,0,1.9066,1.9094,1.913,1.9159,1.9202,1.9225,1.9234,1.928,1.9297,1.9346,1.936,1.9394,1.946,1.949,1.9514,1.9557,1.9566,1.9569,1.9582,1.9611,1.9615,1.9619,1.9635,1.964,1.9573,1.9573,1.9573,0,1.9067,1.9122,1.9147,1.9186,1.9211,1.9229,1.9266,1.9293,1.9347,1.9365,1.9361,1.9445,1.9475,1.9533,1.9544,1.9562,1.9574,1.9563,1.9612,1.9616,1.962,1.9636,1.9642,1.9573,1.9573,1.9573,1.9573,0,1.9123,1.9161,1.9185,1.9237,1.9265,1.9302,1.9334,1.936,1.9374,1.9398,1.9448,1.9485,1.9532,1.9547,1.956,1.9608,1.9605,1.9606,1.9599,1.9625,1.964,1.9647,1.9573,1.9573,1.9573,1.9573,0,0,1.9144,1.921,1.9219,1.9243,1.9293,1.9323,1.9363,1.9408,1.943,1.9467,1.9502,1.9558,1.9561,1.9588,1.9605,1.9631,1.9664,1.9629,1.9631,1.9635,1.972,1.9719,1.9725,1.967,1.9672,1.9673,1.9717,0,1.918,1.925,1.9274,1.9332,1.9369,1.9387,1.9422,1.9457,1.9481,1.9516,1.9543,1.9583,1.9582,1.9599,1.9625,1.9654,1.9681,1.9651,1.9704,1.9705,1.9693,1.9733,1.9732,1.9772,1.9723,1.9724,1.9725,0,1.923,1.9268,1.933,1.9377,1.9393,1.9424,1.9468,1.9501,1.9542,1.9558,1.959,1.9606,1.9649,1.9639,1.97,1.9679,1.9703,1.972,1.9723,1.9728,1.9716,1.9741,1.9785,1.9791,1.9734,1.9734,1.9733,0,1.9241,1.9307,1.9353,1.9373,1.9429,1.945,1.9475,1.9515,1.9541,1.9581,1.9598,1.9642,1.9666,1.9701,1.9729,1.9719,1.9788,1.978,1.9803,1.9803,1.9817,1.9815,1.9865,1.9831,1.9831,1.9831,1.9831,0,1.9278,1.9315,1.9359,1.9387,1.943,1.9459,1.9501,1.9526,1.9562,1.9597,1.9616,1.9648,1.9683,1.9721,1.9743,1.9791,1.9802,1.9816,1.9822,1.9815,1.9813,1.983,1.9828,1.9832,1.9832,1.9832,1.9831,0,1.9296,1.9327,1.9378,1.9427,1.9441,1.947,1.9513,1.9542,1.9567,1.9611,1.9623,1.9663,1.9708,1.9739,1.9797,1.9813,1.9865,1.987,1.985,1.9853,1.9875,1.9872,1.9938,1.9948,1.9906,1.9907,1.9907,0,1.9318,1.9347,1.94,1.9424,1.9448,1.9487,1.9515,1.9545,1.9573,1.9623,1.9646,1.9692,1.9731,1.9802,1.9837,1.9882,1.9889,1.9909,1.9896,1.9888,1.989,1.9888,1.9892,1.9911,1.9911,1.9911,1.9911,0,1.9354,1.9368,1.9406,1.945,1.9482,1.9518,1.9555,1.9574,1.9611,1.9642,1.9688,1.9718,1.9778,1.9824,1.9873,1.9899,1.9912,1.9915,1.9923,1.9916,1.9904,1.9912,1.9856,1.9913,1.9913,1.9913,1.9913,1.9913,1.9375,1.9402,1.9444,1.9487,1.9517,1.9552,1.9582,1.9611,1.965,1.9701,1.9716,1.9765,1.9807,1.9874,1.9901,1.994,1.9939,1.995,1.9953,1.9956,1.9956,1.9898,1.9949,1.9949,1.9949,1.9949,1.9949,0,1.9412,1.944,1.9479,1.953,1.9564,1.9573,1.9615,1.9643,1.9685,1.9723,1.9761,1.9815,1.9861,1.9899,1.9947,1.9971,1.9978,1.9983,1.9981,1.9987,1.9954,1.9942,1.9976,1.9976,1.9976,1.9976,1.9976,1.9976,1.9436,1.9483,1.9502,1.9566,1.9594,1.9641,1.9664,1.9697,1.9728,1.9787,1.9825,1.985,1.9889,1.994,1.9983,1.9993,2.001,2.0013,2.0025,1.9993,1.999,1.9987,1.9976,2.0016,2.0016,2.0056,2.0056,2.0056]},{"header":{"parameterUnit":"m.s-1","parameterCategory":1,"la1":30.2991,"la2":30.254,"lo1":-89.0895,"lo2":-89.0444,"dy":0.0017,"dx":0.0017,"nx":28,"ny":28,"refTime":"2025-03-15T21:00:00:Z","depth":0,"parameterNumber":3,"parameterNumberName":"V-component_of_WINDS"},"data":[0,0,0,0,0,0,0,0,0,0,0,0,0,0,0,0,0,0,0,0,0,0,0,0,0,0,0,0,0,0,0,0,0,0,0,0,0,0,0,0,0,0,0,0,0,0,0,0,0,0,0,0,0,0,0,0,0,0,-4.2806,-4.2807,0,-4.2894,-4.2895,-4.2896,-4.2931,-4.2931,-4.2931,-4.2931,-4.3015,-4.3017,-4.3019,0,0,0,0,0,0,0,0,0,0,0,0,0,-4.2667,-4.267,-4.2806,-4.2807,-4.2808,-4.2893,-4.2895,-4.2896,-4.2931,-4.2931,-4.2931,-4.293,-4.3014,-4.3017,-4.302,0,0,0,0,0,0,0,0,0,0,0,0,0,-4.2738,-4.267,-4.2806,-4.2836,-4.284,-4.2893,-4.2895,-4.2896,-4.2931,-4.2931,-4.2931,-4.293,-4.3013,-4.3017,-4.302,-4.3048,0,0,-4.3031,-4.3033,0,0,0,0,0,0,0,0,-4.2734,-4.2743,-4.2831,-4.2834,-4.2838,-4.2901,-4.2877,-4.2947,-4.2931,-4.2896,-4.2931,-4.293,-4.2977,-4.2983,-4.3,-4.3052,-4.3056,-4.3031,-4.3034,-4.3035,-4.3036,0,0,0,0,0,0,0,-4.2729,-4.274,-4.2841,-4.2832,-4.2837,-4.2845,-4.2855,-4.289,-4.2937,-4.2899,-4.2902,-4.2912,-4.2979,-4.2997,-4.3002,-4.3057,-4.3031,-4.3035,-4.3037,-4.3038,-4.3139,-4.3139,0,0,0,0,0,0,-4.272,-4.2735,-4.2838,-4.2843,-4.2785,-4.2847,-4.2858,-4.2881,-4.2937,-4.2945,-4.2912,-4.2914,-4.2991,-4.2998,-4.3006,-4.3044,-4.3035,-4.3039,-4.3041,-4.3138,-4.3139,-4.314,0,0,0,0,0,0,-4.2717,-4.2729,-4.2834,-4.279,-4.2804,-4.285,-4.2876,-4.2883,-4.2901,-4.2947,-4.2955,-4.2922,-4.2991,-4.3,-4.3038,-4.3047,-4.304,-4.3044,-4.3138,-4.3139,-4.3139,-4.312,0,0,0,0,0,0,-4.2712,-4.2727,-4.2739,-4.279,-4.2807,-4.2866,-4.2876,-4.2885,-4.2908,-4.291,-4.2958,-4.2966,-4.2991,-4.3033,-4.3042,-4.3052,-4.3046,-4.3137,-4.3138,-4.3139,-4.312,-4.312,-4.312,0,0,0,0,0,-4.2707,-4.2728,-4.2739,-4.2751,-4.2822,-4.2867,-4.2876,-4.2906,-4.2908,-4.292,-4.295,-4.2964,-4.3045,-4.3036,-4.3047,-4.3058,-4.3137,-4.3138,-4.3139,-4.312,-4.312,-4.312,0,0,0,0,0,0,-4.2673,-4.2735,-4.2748,-4.2786,-4.2821,-4.2872,-4.2888,-4.2905,-4.2939,-4.2939,-4.2974,-4.2985,-4.302,-4.3043,-4.3032,-4.309,-4.3092,-4.3095,-4.3074,-4.3074,-4.3074,-4.3068,-4.3049,0,0,0,0,0,-4.267,-4.2703,-4.2754,-4.2783,-4.28,-4.2841,-4.2862,-4.2883,-4.292,-4.2934,-4.2967,-4.3001,-4.3035,-4.3055,-4.3088,-4.3123,-4.3135,-4.3137,-4.3137,-4.3136,-4.3139,-4.3162,-4.3163,-4.3143,-4.3143,-4.3143,0,0,-4.2664,-4.2702,-4.272,-4.2777,-4.2807,-4.2839,-4.2853,-4.2886,-4.291,-4.2938,-4.2977,-4.3002,-4.3043,-4.308,-4.3098,-4.31,-4.3147,-4.3138,-4.3137,-4.314,-4.3163,-4.3165,-4.3166,-4.3144,-4.3144,-4.3144,0,0,-4.267,-4.2701,-4.273,-4.276,-4.2807,-4.2834,-4.2841,-4.2891,-4.291,-4.295,-4.2973,-4.3002,-4.3058,-4.3087,-4.3109,-4.313,-4.3144,-4.3139,-4.3139,-4.3161,-4.3162,-4.3164,-4.3173,-4.3175,-4.3141,-4.3141,-4.3141,0,-4.2655,-4.2707,-4.2742,-4.2775,-4.28,-4.283,-4.286,-4.2887,-4.294,-4.2957,-4.2959,-4.3033,-4.3062,-4.3108,-4.3114,-4.313,-4.3139,-4.3134,-4.3159,-4.3161,-4.3163,-4.3172,-4.3175,-4.3141,-4.3141,-4.3141,-4.3141,0,-4.2688,-4.2723,-4.274,-4.2795,-4.2822,-4.2853,-4.2892,-4.2915,-4.2935,-4.2962,-4.3004,-4.3041,-4.3083,-4.3096,-4.3113,-4.3145,-4.3145,-4.3153,-4.3156,-4.3164,-4.3173,-4.3177,-4.3139,-4.314,-4.314,-4.314,0,0,-4.2672,-4.2749,-4.2754,-4.2781,-4.2836,-4.2863,-4.2896,-4.294,-4.296,-4.2996,-4.3025,-4.3074,-4.3083,-4.3108,-4.313,-4.3149,-4.3165,-4.3155,-4.3156,-4.3156,-4.3204,-4.3199,-4.3202,-4.3176,-4.3177,-4.3177,-4.3201,0,-4.2686,-4.2748,-4.2782,-4.2829,-4.2863,-4.2894,-4.2923,-4.296,-4.2987,-4.3019,-4.3048,-4.3084,-4.3092,-4.3108,-4.3128,-4.3159,-4.3175,-4.3158,-4.3203,-4.3204,-4.3192,-4.3206,-4.32,-4.3221,-4.3205,-4.3206,-4.3206,0,-4.2709,-4.2749,-4.2801,-4.2855,-4.2871,-4.2896,-4.2941,-4.2971,-4.3014,-4.3033,-4.3063,-4.3085,-4.3121,-4.3122,-4.3172,-4.316,-4.318,-4.3199,-4.32,-4.3206,-4.3206,-4.3213,-4.3228,-4.3231,-4.3212,-4.3211,-4.3211,0,-4.2694,-4.276,-4.2801,-4.2822,-4.2886,-4.2904,-4.2931,-4.2973,-4.2999,-4.3038,-4.3055,-4.3096,-4.3119,-4.315,-4.3184,-4.3181,-4.3232,-4.3234,-4.3248,-4.3247,-4.3257,-4.3256,-4.3276,-4.3269,-4.3269,-4.3269,-4.3269,0,-4.2706,-4.2737,-4.2796,-4.282,-4.2856,-4.2896,-4.293,-4.2959,-4.2998,-4.3028,-4.3057,-4.3085,-4.3127,-4.316,-4.3186,-4.3226,-4.3235,-4.3251,-4.3258,-4.3249,-4.3247,-4.3263,-4.3263,-4.327,-4.327,-4.327,-4.3269,0,-4.2695,-4.2736,-4.2782,-4.284,-4.2856,-4.288,-4.2929,-4.2954,-4.2985,-4.3024,-4.3035,-4.3082,-4.3123,-4.316,-4.3213,-4.3231,-4.3271,-4.3279,-4.3257,-4.3261,-4.3274,-4.3272,-4.3305,-4.3312,-4.3299,-4.3299,-4.3299,0,-4.27,-4.2725,-4.2788,-4.2812,-4.2839,-4.2877,-4.2904,-4.2945,-4.2972,-4.3024,-4.3043,-4.3088,-4.3125,-4.3189,-4.3227,-4.3269,-4.3279,-4.3287,-4.3285,-4.3276,-4.328,-4.3279,-4.3282,-4.3287,-4.3287,-4.3287,-4.3287,0,-4.2706,-4.2726,-4.2765,-4.2812,-4.2845,-4.2883,-4.2922,-4.294,-4.2988,-4.3017,-4.3061,-4.309,-4.3147,-4.3191,-4.3238,-4.3265,-4.3284,-4.3288,-4.3293,-4.3285,-4.3272,-4.3281,-4.3258,-4.3286,-4.3286,-4.3287,-4.3287,-4.3287,-4.2704,-4.2729,-4.2778,-4.2821,-4.2856,-4.2893,-4.2921,-4.2956,-4.2994,-4.3045,-4.3067,-4.3112,-4.3156,-4.3222,-4.3249,-4.3285,-4.3288,-4.3296,-4.3298,-4.33,-4.3299,-4.3267,-4.3293,-4.3293,-4.3293,-4.3293,-4.3294,0,-4.2712,-4.2746,-4.2786,-4.2842,-4.2876,-4.2894,-4.294,-4.2967,-4.3007,-4.3048,-4.3086,-4.3138,-4.3181,-4.3224,-4.327,-4.329,-4.3301,-4.3301,-4.33,-4.3306,-4.3292,-4.3284,-4.3292,-4.3292,-4.3292,-4.3292,-4.3292,-4.3292,-4.272,-4.2764,-4.279,-4.2852,-4.2886,-4.2933,-4.2957,-4.2992,-4.3025,-4.3083,-4.312,-4.3149,-4.3191,-4.3241,-4.3282,-4.3293,-4.3309,-4.3308,-4.3321,-4.3307,-4.3307,-4.3307,-4.3299,-4.331,-4.331,-4.3333,-4.3333,-4.3333]}]]